Temp
10 10 10 9 9 9 9 9 10 9 10 10 10 10 10 10 10 10 11 11 11 11 11 11 11 12 12 11 14 14 14 14 13 14 14 14 14 13 14 13 13 14 13 13 13 13 13
9 9 9 9 9 9 9 9 9 9 9 9 10 10 10 10 10 10 10 11 10 10 10 11 11 11 11 8 14 13 13 13 13 13 13 13 13 13 12 12 13 12 12 12 12 14 12
7 7 6 7 7 7 7 7 7 8 8 8 8 9 9 9 9 10 10 10 10 10 10 10 11 11 10 13 14 13 13 13 13 12 13 12 12 13 12 12 12 12 13 13 13 13 13
7 6 6 6 5 5 6 5 5 5 6 8 8 8 8 8 9 9 9 9 10 10 10 10 10 10 11 13 13 13 12 12 12 12 12 12 12 12 12 11 11 12 11 14 13 13 12
5 6 6 6 5 5 4 4 5 4 4 5 6 7 7 8 8 8 9 9 9 9 9 8 7 8 10 12 12 12 13 12 12 12 11 11 11 11 11 11 12 10 13 11 13 12 13
5 5 5 5 6 5 5 5 4 4 3 3 4 7 6 7 8 7 8 8 8 6 6 6 5 6 11 12 11 12 12 11 11 10 10 10 10 11 9 12 14 12 11 10 11 13 12
5 5 5 5 5 4 5 4 4 3 3 3 3 5 5 6 7 7 7 6 6 5 4 9 8 8 10 11 11 11 11 10 10 10 10 9 11 11 12 11 10 10 10 10 11 11 10
4 5 4 4 4 4 4 4 4 3 3 2 2 3 4 5 6 6 6 6 6 4 5 8 8 8 8 10 11 11 11 11 10 10 9 9 10 11 10 9 10 10 10 11 10 11 11
4 4 4 4 4 4 4 4 3 3 2 3 2 3 4 5 6 6 6 5 5 4 4 6 7 7 7 8 8 10 10 10 10 9 9 10 11 10 10 9 9 9 10 10 10 10 10
3 3 4 3 3 3 3 3 3 3 2 2 2 3 4 4 4 6 5 6 4 4 4 7 5 6 6 7 7 10 10 11 10 10 9 10 10 10 10 10 10 9 10 10 10 10 10
2 2 3 3 3 3 3 3 3 3 2 2 2 2 3 3 5 4 4 6 5 4 7 8 5 6 6 7 8 8 9 10 10 9 10 11 10 9 10 11 10 11 9 10 9 9 8
1 1 2 2 3 3 3 3 3 3 3 2 2 2 3 3 4 4 4 4 5 4 6 8 6 6 6 7 8 8 9 10 10 9 9 10 9 10 11 8 10 9 9 9 7 8 9
-1 0 1 2 2 2 3 3 3 3 3 2 2 2 2 3 4 4 4 4 4 4 9 8 7 7 7 7 8 8 9 9 10 9 9 9 9 9 10 10 8 10 10 9 8 7 9
-2 -1 -0 1 2 2 3 3 3 3 2 2 2 1 2 2 3 3 4 4 3 7 7 9 9 7 8 9 9 8 8 8 8 9 7 9 10 9 10 11 10 9 10 10 9 8 9
-1 -1 -1 0 1 2 2 2 2 2 2 2 2 1 1 2 2 3 3 4 5 6 8 8 9 9 8 9 10 9 8 8 9 9 11 8 9 8 8 9 11 8 9 11 9 7 7
-2 0 -1 -0 0 1 2 2 1 2 2 1 2 1 1 2 1 1 3 5 5 6 8 8 9 9 9 9 9 10 8 9 9 9 10 10 10 9 8 9 8 10 9 8 7 8 8
-2 -2 -2 -0 -0 0 1 2 1 2 1 1 1 0 2 2 1 1 3 4 6 7 8 8 8 8 8 9 9 8 9 10 9 9 10 9 10 9 9 9 9 8 8 8 8 7 9
-2 -2 -2 -0 -0 -0 1 0 1 1 1 0 0 0 2 2 1 2 2 5 6 6 7 7 7 7 8 8 8 8 9 9 9 8 8 9 9 9 10 8 10 10 10 9 8 7 6
-3 -2 -2 -2 -1 -1 0 0 0 0 0 -0 -0 1 1 1 2 2 3 4 5 5 6 6 6 7 7 7 8 8 9 8 8 9 8 8 7 8 9 7 8 8 9 9 8 7 8
-2 -2 -2 -2 -2 -1 -0 0 0 -0 -0 -0 -1 0 -0 1 2 3 3 3 4 5 5 5 6 7 7 7 7 7 7 8 7 7 7 7 6 8 9 8 8 7 8 9 8 7 8
-3 -2 -2 -2 -2 -1 1 0 -0 -0 -0 -0 -0 0 1 0 1 2 3 4 3 4 5 5 5 5 6 6 6 6 7 7 7 7 6 6 7 7 8 8 8 9 9 9 8 8 8
-4 -2 -2 -2 -2 -1 -0 -1 -0 -0 -1 -0 -1 -0 -1 0 2 2 3 3 4 4 5 3 4 4 5 5 6 6 6 6 7 5 5 4 7 6 7 7 7 7 8 8 8 8 8
-4 -3 -2 -2 -2 -1 -1 -1 -1 -1 -1 -0 -0 -0 2 -0 2 2 2 3 4 4 4 5 5 4 4 5 5 5 5 5 6 6 4 4 5 5 6 7 6 5 7 7 8 8 8
-3 -3 -2 -2 -1 -1 -1 -1 -1 -1 -1 -0 -0 -1 -1 0 1 2 2 2 3 4 4 4 4 4 4 5 5 4 3 3 3 4 5 4 4 4 6 6 5 9 5 6 7 8 7
-3 -3 -2 -2 -1 -1 -1 -2 -2 -1 -1 -1 -1 -0 -1 -0 1 1 1 2 2 2 3 3 3 4 4 4 3 3 3 2 2 4 4 5 5 5 5 5 6 7 5 4 5 7 5
-3 -3 -2 -2 -2 -2 -2 -1 -1 -1 -1 -1 -1 -0 -2 -1 0 1 1 1 1 1 1 1 2 3 3 3 2 3 4 4 4 3 3 4 5 5 4 4 5 6 4 4 5 5 3
-4 -4 -3 -3 -2 -2 -3 -1 -1 -1 -2 -2 -2 -2 -2 -1 -1 -1 0 1 1 1 1 1 0 1 3 1 2 3 4 5 5 4 3 3 3 4 3 4 5 5 4 4 5 6 1
-4 -4 -4 -3 -3 -3 -2 -2 -2 -2 -2 -2 -2 -1 -2 -2 -1 -0 0 1 1 1 1 1 1 1 1 2 2 3 2 4 3 3 5 5 4 4 4 4 4 3 3 5 3 -2 -1
-4 -4 -3 -3 -3 -2 -2 -2 -2 -2 -2 -3 -2 -2 -2 -2 -2 -1 0 0 1 2 1 1 2 1 1 2 2 3 2 2 3 3 3 4 4 4 4 5 -0 -1 -0 0 0 -1 -2
Height
1492 1495 1496 1499 1502 1504 1507 1509 1510 1511 1513 1514 1515 1514 1515 1516 1516 1517 1516 1515 1516 1516 1515 1514 1513 1512 1512 1512 1509 1507 1507 1509 1510 1510 1511 1511 1513 1516 1517 1516 1517 1518 1518 1517 1518 1519 1519
1483 1483 1487 1490 1493 1496 1499 1502 1504 1505 1507 1508 1509 1509 1510 1511 1512 1513 1512 1512 1512 1513 1513 1511 1510 1510 1509 1511 1503 1504 1505 1507 1507 1509 1510 1510 1513 1515 1517 1518 1517 1517 1518 1517 1515 1514 1516
1478 1479 1483 1485 1487 1489 1493 1495 1498 1500 1501 1502 1503 1503 1505 1506 1507 1509 1508 1508 1509 1509 1510 1510 1506 1507 1505 1502 1499 1500 1502 1504 1505 1506 1508 1509 1512 1514 1516 1517 1517 1518 1518 1516 1514 1513 1512
1475 1475 1478 1480 1482 1487 1488 1491 1493 1495 1496 1497 1497 1498 1500 1502 1502 1505 1505 1505 1505 1505 1506 1506 1504 1504 1499 1496 1496 1496 1498 1501 1503 1504 1506 1508 1510 1512 1515 1517 1518 1518 1520 1516 1514 1514 1514
1472 1471 1473 1476 1478 1482 1484 1487 1488 1492 1493 1492 1493 1494 1497 1499 1500 1503 1502 1502 1502 1502 1503 1502 1503 1502 1494 1492 1492 1493 1494 1499 1499 1501 1505 1507 1509 1512 1515 1516 1516 1520 1513 1521 1516 1515 1515
1467 1467 1467 1473 1474 1476 1480 1482 1485 1489 1489 1489 1489 1489 1494 1495 1497 1500 1499 1499 1498 1501 1499 1501 1500 1504 1492 1491 1490 1492 1494 1496 1497 1499 1505 1507 1509 1511 1515 1513 1509 1512 1515 1519 1518 1514 1514
1459 1462 1462 1465 1470 1471 1472 1475 1481 1484 1485 1485 1485 1486 1491 1493 1494 1496 1497 1500 1501 1501 1498 1491 1491 1489 1488 1488 1490 1491 1492 1495 1497 1501 1502 1506 1507 1503 1503 1509 1513 1515 1515 1516 1515 1514 1516
1454 1455 1457 1459 1464 1467 1468 1470 1474 1477 1480 1482 1481 1484 1489 1490 1490 1493 1493 1496 1498 1499 1493 1487 1487 1485 1486 1487 1488 1489 1492 1494 1496 1497 1501 1507 1504 1502 1506 1511 1512 1513 1514 1511 1513 1511 1512
1447 1449 1450 1453 1458 1461 1464 1463 1468 1473 1475 1478 1478 1481 1485 1488 1488 1492 1490 1494 1496 1496 1495 1481 1478 1479 1479 1485 1485 1484 1489 1490 1494 1498 1498 1499 1497 1497 1503 1508 1511 1514 1513 1512 1513 1512 1508
1440 1443 1444 1446 1450 1454 1458 1459 1462 1469 1471 1473 1475 1479 1481 1484 1490 1488 1487 1492 1493 1496 1497 1477 1475 1473 1474 1479 1481 1478 1484 1488 1494 1493 1498 1497 1495 1497 1501 1502 1507 1512 1508 1509 1511 1511 1509
1434 1436 1437 1439 1444 1448 1451 1455 1458 1463 1467 1470 1470 1475 1479 1480 1482 1486 1487 1488 1494 1495 1494 1471 1472 1471 1474 1479 1474 1474 1480 1484 1487 1491 1494 1491 1493 1496 1499 1499 1504 1504 1507 1508 1510 1510 1511
1426 1428 1431 1433 1436 1441 1445 1449 1453 1456 1461 1465 1469 1472 1475 1477 1480 1484 1487 1488 1492 1501 1487 1467 1470 1467 1476 1476 1474 1474 1478 1482 1487 1491 1490 1490 1492 1493 1493 1498 1500 1504 1508 1511 1515 1514 1507
1421 1419 1423 1426 1429 1434 1436 1442 1446 1450 1453 1459 1465 1469 1473 1474 1477 1483 1486 1489 1493 1492 1462 1463 1464 1468 1469 1471 1473 1473 1477 1479 1479 1492 1491 1492 1489 1491 1492 1496 1503 1501 1504 1509 1510 1516 1498
1416 1414 1415 1418 1421 1425 1429 1432 1437 1441 1447 1453 1459 1464 1468 1473 1474 1478 1484 1486 1491 1461 1462 1457 1458 1465 1466 1466 1468 1472 1475 1479 1480 1481 1489 1488 1487 1487 1485 1486 1491 1500 1499 1501 1501 1502 1495
1411 1407 1411 1409 1412 1417 1420 1423 1428 1433 1440 1448 1454 1456 1462 1468 1471 1474 1480 1480 1465 1462 1455 1457 1456 1459 1463 1462 1464 1467 1471 1475 1473 1474 1477 1485 1484 1482 1483 1485 1487 1498 1497 1493 1498 1508 1503
1393 1395 1399 1403 1403 1403 1412 1417 1420 1428 1435 1441 1446 1452 1453 1464 1467 1472 1472 1466 1460 1455 1455 1454 1456 1457 1460 1461 1462 1464 1468 1464 1467 1468 1470 1475 1480 1478 1482 1483 1488 1486 1490 1498 1502 1494 1491
1392 1395 1398 1399 1398 1398 1400 1407 1414 1421 1429 1435 1442 1448 1447 1456 1464 1470 1462 1456 1454 1454 1455 1457 1456 1458 1457 1458 1459 1463 1461 1462 1462 1464 1468 1473 1474 1480 1481 1477 1477 1488 1487 1490 1491 1494 1479
1386 1385 1384 1383 1385 1391 1394 1397 1404 1412 1418 1426 1432 1441 1444 1447 1457 1460 1456 1447 1453 1454 1456 1458 1457 1457 1457 1458 1460 1461 1461 1461 1461 1463 1468 1469 1472 1470 1470 1473 1470 1471 1473 1478 1484 1488 1492
1377 1376 1375 1377 1384 1387 1390 1393 1393 1399 1409 1417 1424 1433 1437 1442 1445 1449 1450 1448 1454 1454 1453 1456 1456 1456 1456 1459 1463 1460 1459 1461 1461 1461 1464 1467 1473 1468 1468 1477 1474 1469 1470 1471 1476 1481 1473
1370 1369 1371 1374 1375 1377 1380 1385 1391 1397 1404 1411 1418 1426 1432 1436 1440 1441 1444 1445 1450 1451 1455 1455 1457 1456 1457 1458 1460 1459 1460 1459 1460 1462 1464 1464 1468 1463 1460 1467 1466 1471 1466 1465 1468 1468 1465
1363 1363 1364 1366 1370 1370 1372 1378 1383 1392 1397 1404 1412 1415 1418 1426 1433 1436 1439 1439 1443 1447 1448 1450 1452 1455 1455 1457 1457 1457 1459 1460 1460 1461 1463 1465 1461 1464 1457 1458 1458 1456 1456 1458 1459 1458 1462
1357 1356 1357 1359 1361 1364 1368 1369 1378 1385 1393 1396 1404 1410 1416 1420 1425 1429 1434 1435 1436 1439 1443 1447 1447 1449 1452 1451 1451 1451 1454 1457 1455 1461 1461 1464 1457 1462 1455 1456 1457 1455 1452 1452 1453 1451 1449
1350 1349 1350 1352 1355 1358 1361 1366 1371 1379 1389 1387 1396 1404 1411 1417 1421 1426 1425 1424 1425 1435 1438 1440 1443 1446 1448 1447 1450 1450 1453 1454 1454 1455 1459 1462 1460 1461 1450 1451 1455 1454 1442 1443 1442 1442 1442
1343 1341 1343 1345 1348 1352 1359 1362 1369 1377 1385 1387 1394 1402 1410 1413 1416 1417 1422 1424 1427 1431 1434 1438 1440 1442 1445 1446 1448 1448 1449 1450 1451 1449 1452 1455 1458 1455 1445 1452 1445 1425 1436 1436 1435 1431 1436
1338 1334 1336 1338 1341 1348 1355 1363 1371 1378 1382 1389 1392 1400 1404 1408 1411 1416 1419 1421 1427 1431 1433 1435 1437 1440 1442 1445 1448 1448 1446 1448 1441 1439 1441 1444 1448 1447 1446 1440 1435 1427 1432 1435 1434 1424 1429
1336 1333 1331 1336 1333 1340 1354 1363 1370 1377 1382 1388 1392 1398 1405 1407 1410 1413 1417 1418 1423 1427 1431 1431 1433 1436 1441 1444 1448 1439 1433 1432 1432 1434 1433 1434 1436 1442 1443 1433 1429 1422 1426 1429 1430 1424 1422
1336 1335 1334 1337 1342 1346 1355 1362 1369 1376 1380 1386 1391 1397 1405 1409 1410 1413 1413 1414 1418 1422 1426 1428 1429 1432 1435 1439 1440 1436 1431 1427 1425 1427 1430 1430 1430 1427 1428 1426 1423 1420 1424 1428 1429 1419 1421
1338 1339 1340 1342 1344 1350 1356 1362 1368 1375 1379 1384 1390 1394 1402 1408 1410 1410 1411 1411 1414 1415 1421 1424 1427 1427 1431 1433 1431 1429 1430 1424 1425 1423 1418 1417 1421 1420 1425 1426 1425 1417 1423 1423 1421 1422 1424
1337 1338 1339 1341 1346 1351 1357 1362 1367 1372 1378 1384 1389 1393 1399 1406 1408 1407 1408 1410 1411 1413 1417 1420 1420 1420 1422 1423 1423 1422 1424 1425 1421 1417 1418 1416 1410 1414 1415 1412 1417 1415 1417 1417 1420 1421 1423
Wind_Speed
35 37 35 33 33 33 31 29 30 29 27 27 26 25 25 24 24 23 22 21 20 18 17 17 17 17 17 7 10 11 11 12 10 6 3 1 2 3 3 2 1 4 2 3 7 12 12
29 34 35 33 31 31 33 33 31 30 29 29 28 26 24 23 22 21 20 20 18 17 16 16 16 17 15 6 11 12 13 16 15 11 6 2 2 5 3 1 2 0 4 9 7 13 8
19 16 16 18 20 21 20 23 25 28 27 27 25 24 22 21 20 19 18 17 16 16 15 17 16 17 18 21 14 13 12 14 16 13 8 6 7 5 3 1 1 3 6 7 4 1 1
23 21 20 19 19 20 21 21 21 21 22 23 23 21 20 19 17 16 16 15 15 15 14 15 16 15 12 11 11 15 17 16 13 9 5 8 8 6 1 1 4 2 2 3 2 7 3
25 24 21 20 20 19 19 19 20 21 19 19 19 19 18 18 15 15 14 14 14 14 13 12 10 9 11 8 7 9 13 14 11 19 11 10 8 4 3 3 2 2 3 0 5 4 4
31 26 22 26 26 25 24 23 22 22 18 16 17 18 18 16 14 13 12 12 12 9 7 9 11 6 9 4 5 5 7 8 3 16 12 7 4 3 2 5 5 3 3 3 3 3 8
32 32 28 26 27 26 25 27 28 23 19 18 16 16 16 15 13 12 10 6 4 4 11 11 5 5 2 6 8 7 8 11 14 6 5 4 5 12 13 9 3 3 2 6 6 9 6
32 33 30 28 28 29 30 25 25 24 21 17 17 15 14 13 11 11 11 6 4 3 10 16 24 24 19 4 3 9 10 9 6 4 8 4 10 12 6 8 8 6 7 12 7 5 6
28 31 30 28 27 28 30 27 23 20 20 18 16 15 13 10 10 13 13 9 5 4 5 9 17 20 19 20 11 13 17 8 4 6 10 6 1 7 11 7 7 4 10 7 8 6 4
32 30 33 28 27 25 26 27 24 23 23 20 17 15 11 10 9 12 14 10 10 3 2 5 6 5 10 11 7 22 20 10 4 11 9 6 3 6 8 5 7 5 10 9 7 5 4
27 33 32 28 27 27 26 27 24 23 21 19 17 15 12 13 6 9 6 11 11 4 3 4 5 8 9 8 3 2 21 10 8 6 6 4 5 5 7 8 7 4 5 5 1 3 4
20 28 32 33 28 29 30 29 27 24 20 18 16 14 14 14 13 10 11 16 13 4 8 2 5 7 7 4 0 7 5 9 7 4 1 2 1 4 4 3 7 6 4 4 3 0 6
26 22 30 32 33 35 34 33 31 27 24 22 16 14 13 13 14 13 17 16 3 5 2 4 4 6 5 6 4 3 11 9 8 7 8 1 6 2 4 4 2 6 5 2 2 3 5
31 28 29 35 34 36 38 39 38 34 29 24 23 18 17 16 13 18 21 3 5 3 4 0 4 6 6 7 3 4 9 8 5 3 3 8 4 12 8 16 7 9 10 5 6 4 1
28 28 35 28 33 37 37 39 34 32 29 25 22 23 25 19 19 19 14 6 7 6 3 4 4 3 3 3 3 4 9 6 9 11 7 6 4 2 3 4 13 6 6 8 6 3 4
29 31 30 30 23 28 35 35 37 32 29 28 29 24 26 19 20 21 7 12 7 4 1 1 6 3 6 4 6 9 9 5 6 15 5 5 2 5 5 6 3 5 10 3 3 5 6
28 28 32 35 28 24 33 34 35 33 32 31 27 10 8 23 24 18 9 11 7 4 5 2 2 2 2 3 5 4 3 2 4 6 15 5 3 3 8 9 13 5 5 2 2 2 4
27 30 30 31 31 27 29 31 35 40 39 33 25 4 16 32 14 12 13 12 7 1 22 4 3 2 3 2 1 3 4 2 4 5 8 7 3 8 15 2 8 7 10 12 5 5 3
27 27 28 26 35 33 32 31 33 38 36 35 19 10 21 32 9 11 12 19 16 3 5 3 4 5 2 3 3 5 3 2 4 5 6 6 3 5 5 1 2 7 8 9 6 3 14
25 26 27 26 28 32 31 35 36 33 34 33 10 4 7 16 13 10 14 16 15 14 17 14 4 4 2 6 4 2 3 1 2 3 2 5 6 8 10 3 4 5 11 14 14 6 9
24 25 28 24 27 26 34 43 37 37 36 37 11 4 8 7 11 10 11 5 17 11 13 15 11 12 9 9 10 11 9 9 3 4 4 6 11 7 13 10 7 8 12 13 15 17 11
23 25 26 28 27 24 33 40 40 39 37 26 13 5 5 5 20 19 14 14 20 12 10 6 10 11 14 12 12 5 6 5 7 2 5 4 10 6 14 9 13 14 15 14 16 18 16
23 25 22 28 24 28 29 37 37 36 42 14 16 16 12 7 11 13 11 19 17 12 9 17 12 7 9 11 10 10 9 7 5 4 5 3 5 6 12 6 7 10 19 18 14 17 15
21 23 21 26 19 27 26 29 30 32 39 18 20 15 7 5 8 13 10 16 19 12 13 6 14 8 4 6 5 4 6 8 11 13 14 7 5 3 7 5 12 5 2 6 14 17 15
17 14 20 25 31 32 31 29 30 32 36 31 19 17 4 3 9 7 8 6 9 12 13 9 10 5 5 4 4 4 4 3 8 16 17 16 12 9 7 8 6 7 6 7 7 8 12
8 4 11 18 20 25 30 27 26 27 27 25 23 21 2 2 4 7 7 10 4 4 1 5 14 18 15 2 3 6 6 5 4 4 7 14 16 14 5 8 8 3 2 6 4 9 14
4 4 4 13 16 20 23 23 23 24 23 23 21 18 13 3 4 12 4 7 9 5 2 1 6 7 16 6 7 7 7 2 8 5 4 5 4 9 4 3 5 5 7 6 5 4 10
5 4 5 5 9 13 16 19 22 24 24 24 23 17 20 9 8 6 7 6 8 10 5 5 3 3 5 8 7 5 5 6 3 3 6 9 7 4 3 6 10 11 8 8 1 2 10
9 9 10 9 9 14 17 19 20 22 23 21 20 20 18 10 5 13 21 20 16 14 16 11 4 5 6 4 4 3 4 4 3 4 4 6 5 6 8 4 1 3 2 4 6 7 15
Wind_Direction
238 241 240 242 242 238 242 246 251 254 258 265 270 271 270 271 274 277 280 282 285 288 287 290 293 295 301 297 261 250 225 219 218 227 236 120 38 132 194 154 234 223 243 297 302 310 294
219 221 225 224 226 231 235 242 247 251 256 264 268 267 265 266 268 271 274 276 281 282 285 285 289 293 295 269 260 255 235 231 235 241 253 280 155 154 130 155 216 76 304 302 300 291 291
255 241 238 230 231 229 238 245 252 255 260 261 260 260 260 260 263 266 268 272 277 279 283 283 283 286 285 269 262 250 238 235 241 246 252 186 166 174 139 172 322 321 312 315 309 73 61
263 247 247 248 249 252 258 258 261 261 259 254 253 252 253 253 255 259 263 269 275 277 275 272 278 282 267 267 257 246 240 236 232 201 165 177 157 133 179 98 17 360 95 308 34 348 19
258 253 254 252 249 253 258 262 266 267 259 249 247 247 246 245 248 252 258 270 278 275 273 267 270 268 265 256 253 234 230 241 235 225 190 152 150 139 147 111 327 28 258 197 314 61 25
258 258 254 254 253 258 261 262 264 267 250 244 241 238 239 239 240 248 256 264 275 279 257 269 249 267 248 227 191 176 180 174 154 155 154 159 120 150 116 171 236 202 212 176 241 306 341
252 253 248 248 256 253 246 255 252 251 243 241 233 233 235 237 235 239 242 259 254 251 233 212 220 229 208 170 209 197 169 140 129 150 151 171 183 210 207 196 145 143 223 274 275 272 299
256 248 245 244 247 251 249 239 243 242 234 231 226 227 234 233 227 226 224 208 215 294 293 261 246 248 239 205 213 211 179 172 162 165 128 132 236 223 137 174 202 232 271 270 289 269 287
257 253 248 243 245 250 243 235 234 227 220 224 223 223 226 232 222 225 224 213 180 308 266 276 236 238 240 228 233 211 184 176 151 155 182 176 203 172 175 168 191 218 241 256 268 316 267
258 253 250 245 250 241 239 231 226 225 219 216 218 220 216 210 222 231 228 204 176 322 329 242 210 238 184 178 233 236 201 175 185 200 167 229 202 133 167 189 178 236 222 241 263 307 295
257 250 251 241 236 231 229 225 222 221 223 218 213 213 209 199 200 189 199 174 165 172 301 107 147 143 168 198 136 112 198 196 174 162 168 216 167 163 207 228 171 240 167 206 226 237 306
276 254 248 248 238 233 227 220 214 210 214 211 209 203 203 199 205 160 138 145 144 53 244 164 136 148 154 239 84 114 149 192 165 119 46 196 173 158 187 81 181 135 104 61 57 359 266
279 260 250 245 241 238 233 223 215 210 204 203 207 213 214 202 209 172 153 152 102 182 341 180 176 169 181 167 160 127 167 168 161 170 221 181 219 171 165 137 69 168 149 278 249 191 256
278 273 261 245 239 238 234 233 222 213 200 200 213 232 228 218 197 168 172 145 206 211 210 26 132 135 183 155 187 133 146 187 232 108 128 190 242 181 195 214 186 188 208 208 241 210 227
273 272 270 263 241 235 234 228 215 208 209 211 219 216 226 211 199 181 181 207 217 192 198 180 135 142 208 204 151 147 175 195 208 185 190 169 251 179 177 150 181 171 206 232 265 182 248
281 275 275 255 261 243 225 228 225 221 217 207 201 204 221 202 198 191 196 220 221 209 153 78 179 175 182 195 170 185 179 189 207 195 196 195 178 219 138 112 71 193 148 130 176 235 234
265 263 261 256 258 260 229 222 215 209 195 198 194 191 208 195 187 190 203 223 219 232 55 337 141 131 153 159 184 195 196 215 212 198 202 163 222 160 148 204 174 165 200 166 191 218 254
272 261 266 268 266 251 247 225 215 194 192 188 175 178 174 176 172 187 212 210 229 81 237 284 34 163 166 120 75 198 211 246 127 136 165 208 202 233 221 58 204 199 197 193 213 208 223
275 268 256 264 258 262 230 225 201 183 184 176 171 157 172 177 185 189 223 229 236 235 215 189 224 202 126 162 226 224 214 49 162 156 170 173 202 241 218 260 298 207 197 198 210 230 239
274 271 253 246 253 265 235 227 208 199 193 188 151 155 156 193 209 191 205 229 215 229 249 256 299 202 191 225 224 224 205 346 95 138 96 208 189 241 247 222 162 199 215 215 210 232 262
275 267 257 246 246 246 235 207 190 192 188 183 163 185 171 168 199 204 197 199 215 228 214 209 229 233 217 233 242 247 249 260 240 220 162 173 256 232 251 239 217 241 241 223 216 228 236
277 269 257 242 244 232 217 205 209 194 192 177 151 152 145 161 188 194 203 223 232 211 200 212 221 209 215 233 225 239 211 206 233 144 188 175 253 245 261 237 227 238 241 241 238 245 250
274 269 247 240 242 230 216 194 182 185 189 182 178 180 170 174 184 191 200 212 225 206 221 229 207 216 226 236 232 252 261 255 233 214 190 189 212 197 254 241 218 245 239 230 234 234 232
276 276 244 233 230 217 209 193 185 184 194 187 168 162 172 171 174 196 186 214 231 217 216 189 207 211 248 238 251 254 249 253 242 232 210 214 207 219 256 210 231 249 171 226 235 244 220
276 266 230 220 230 203 188 188 190 188 198 198 176 185 127 149 190 155 176 160 195 227 241 231 219 205 174 208 225 255 242 260 237 230 216 211 220 241 243 231 290 266 200 190 187 256 200
286 290 172 208 186 184 180 185 183 188 200 204 219 215 269 105 204 176 173 181 162 166 166 239 238 239 241 227 250 237 228 219 226 272 229 217 225 224 203 193 227 244 177 145 139 272 191
305 346 50 136 157 164 172 183 187 191 201 200 197 204 189 166 217 220 188 176 170 169 162 193 157 176 195 189 214 236 251 235 248 216 192 180 182 220 162 187 278 221 155 153 175 271 168
239 227 218 183 162 176 182 184 186 187 194 197 205 203 196 205 226 213 206 168 165 183 175 165 127 173 168 196 203 189 222 210 253 256 202 212 180 205 177 209 248 152 126 192 149 113 161
240 251 249 221 216 207 198 196 196 194 195 194 197 208 204 209 232 233 249 241 232 232 207 189 245 154 189 190 205 182 194 182 196 237 203 210 198 181 195 209 346 185 62 194 173 169 169